Tracking 25689 objects as of 7-Jul-2022
HD Live streaming from Space Station
objects crossing your sky now

FENGYUN 1C DEB

Track FENGYUN 1C DEB now!
10-day predictions


NORAD ID: 30679
Int'l Code: 1999-025AQM
Perigee: 850.9 km
Apogee: 1,111.8 km
Inclination: 99.5 °
Period: 104.6 minutes
Semi major axis: 7352 km
RCS: 0.0204 m2 (small)
Launch date: May 10, 1999
Source: People's Republic of China (PRC)
Launch site: Taiyaun Space Center, China (TSC)

Note: This is SATELLITE DEBRIS
aabbcc
Your satellite tracking list
Your tracking list is empty




NASA's NSSDC Master Catalog

Two Line Element Set (TLE):
1 30679U 99025AQM 22188.08643906  .00000289  00000-0  29988-3 0  9995
2 30679  99.5137 228.7451 0177428 135.4016 257.5414 13.77090697772428
Source of the keplerian elements: AFSPC